User: anonymous   Login
Location: Unspecified
(0.0000°N, 0.0000°E)
Time: 20:51:45
(UTC+00:00)
Language:

DSP F17 - Orbit

View from above orbital plane
View from above orbital plane
View from above satellite
View from above satellite

Ground track
Ground track

The orbit data is extracted from the following two-line orbital elements,

1 23435U 94084A   18125.56937577 0.00000000  00000-0  00000-0 0    01
2 23435  14.3350  19.1782 0002002  39.3640 320.6831  1.00270000    05
Epoch (UTC): 05 May 2018 13:39:54
Eccentricity: 0.0002002
inclination: 14.3350°
perigee height: 35778 km
apogee height: 35795 km
right ascension of ascending node: 19.1782°
argument of perigee: 39.3640°
revolutions per day: 1.00270000
mean anomaly at epoch: 320.6831°
orbit number at epoch: 0

The dashed part of the orbit path shows where the satellite is in the earth's shadow,  

DLR